PBO Station Position Time Series. Reference Frame : NAM14
Format Version,1.1.0
4-character ID,CN55
Station name,CN55_Agu_PAN2018
Begin Date, 2018-06-28
End Date, 2019-02-27
Release Date, 2019-09-01
Reference position, 8.2432690419 North Latitude, -80.5393388195 East Longitude, 44.61857 meters elevation,
Date, North (mm), East (mm), Vertical (mm), North Std. Deviation (mm), East Std. Deviation (mm),              Vertical Std. Deviation (mm), Quality,
2018-06-28,-0.91, -1.52, 2.08, 186.27, 156.12, 371.53, repro,
2018-06-29,0.69, -0.35, 1.59, 186.07, 155.19, 371.45, repro,
2018-06-30,0.25, 0.62, 6.41, 198.46, 202.37, 518.84, repro,
2018-07-01,-0.82, -0.40, 6.18, 228.00, 182.85, 477.28, repro,
2018-07-02,1.44, -0.89, 13.72, 223.15, 178.78, 468.19, repro,
2018-07-03,0.48, -1.14, 4.04, 228.26, 185.87, 481.07, repro,
2018-07-04,-0.28, 1.95, -0.58, 204.36, 447.56, 605.92, repro,
2018-07-05,0.10, -0.87, -6.34, 218.26, 264.33, 660.42, repro,
2018-07-06,1.19, 0.18, 7.65, 101.55, 165.83, 342.21, repro,
2018-07-07,0.19, -0.93, -6.39, 221.67, 261.99, 662.59, repro,
2018-07-08,0.00, 0.00, 0.00, 1.57, 1.86, 7.32, repro,
2018-07-09,1.42, -0.83, 4.89, 1.54, 1.79, 7.09, repro,
2018-07-10,2.17, 0.61, 9.90, 1.54, 1.80, 7.10, repro,
2018-07-11,0.71, -2.47, 15.55, 1.57, 1.87, 7.28, repro,
2018-07-12,0.26, -1.80, 7.81, 1.57, 1.81, 7.21, repro,
2018-07-13,1.14, -1.47, 11.10, 1.67, 1.92, 7.67, repro,
2018-07-14,-0.99, -2.85, -0.90, 1.62, 1.97, 7.55, repro,
2018-07-15,1.63, -0.45, 6.81, 1.53, 1.80, 7.08, repro,
2018-07-16,3.96, -0.99, 10.73, 1.63, 2.03, 7.62, repro,
2018-07-17,1.23, 0.29, 11.03, 1.54, 1.80, 7.10, repro,
2018-07-18,1.18, -0.99, 8.84, 1.55, 1.79, 7.11, repro,
2018-07-19,1.25, -0.04, 6.07, 1.55, 1.80, 7.12, repro,
2018-07-20,-0.48, 1.43, 6.32, 1.70, 2.10, 7.85, repro,
2018-07-21,1.25, -0.48, 6.98, 1.61, 2.03, 7.53, repro,
2018-07-22,0.35, 0.56, 10.01, 1.74, 2.17, 8.10, repro,
2018-07-23,-0.59, 0.32, 11.34, 1.54, 1.81, 7.12, repro,
2018-07-24,-0.01, -0.56, 8.17, 1.59, 1.81, 7.45, repro,
2018-07-25,0.32, -0.94, 5.32, 1.61, 1.95, 7.47, repro,
2018-07-26,-1.74, 2.17, 2.24, 1.79, 2.25, 8.33, repro,
2018-07-27,-0.52, -0.42, 10.45, 1.53, 1.79, 7.06, repro,
2018-07-28,0.91, -0.86, 4.33, 1.63, 1.93, 7.50, repro,
2018-07-29,-1.14, 2.11, 6.92, 1.59, 1.82, 7.33, repro,
2018-07-30,2.03, -1.14, 15.78, 1.62, 1.88, 7.57, repro,
2018-07-31,0.09, -0.34, 13.54, 1.81, 2.22, 8.74, repro,
2018-08-01,2.90, 0.56, 6.91, 1.57, 1.86, 7.22, repro,
2018-08-02,3.64, -1.31, 3.32, 1.63, 2.05, 7.67, repro,
2018-08-03,0.59, -1.24, 4.45, 1.55, 1.80, 7.12, repro,
2018-08-04,1.35, -0.28, 15.07, 1.61, 1.94, 7.47, repro,
2018-08-05,0.35, -4.96, 11.26, 1.63, 2.03, 7.63, repro,
2018-08-06,-1.55, 0.68, 1.72, 1.59, 1.94, 7.43, repro,
2018-08-07,-0.65, 1.56, 3.47, 1.62, 2.00, 7.57, repro,
2018-08-08,1.91, -0.43, 13.57, 1.54, 1.80, 7.11, repro,
2018-08-09,2.40, -1.11, 6.65, 1.58, 1.89, 7.32, repro,
2018-08-10,1.23, -0.51, 6.39, 1.55, 1.80, 7.13, repro,
2018-08-11,2.21, -0.43, 9.39, 1.58, 1.87, 7.29, repro,
2018-08-12,0.92, -2.08, 10.16, 1.53, 1.78, 7.04, repro,
2018-08-13,0.02, -2.50, 8.87, 1.83, 2.54, 8.82, repro,
2018-08-14,0.16, -0.17, 6.38, 1.54, 1.78, 7.07, repro,
2018-08-15,1.19, -0.35, 4.62, 1.54, 1.78, 7.09, repro,
2018-08-16,0.79, 0.31, 6.90, 1.63, 1.85, 7.53, repro,
2018-08-17,0.19, 0.10, 8.44, 1.63, 1.96, 7.48, repro,
2018-08-18,0.85, -1.34, 14.60, 1.54, 1.80, 7.13, repro,
2018-08-19,1.69, 1.01, 19.84, 1.62, 2.02, 7.57, repro,
2018-08-20,0.61, 0.45, 7.58, 1.77, 2.09, 8.37, repro,
2018-08-21,-0.82, 0.79, 1.98, 1.63, 2.03, 7.68, repro,
2018-08-22,0.61, -0.30, 22.53, 1.78, 2.08, 8.52, repro,
2018-08-23,1.77, -1.53, 13.26, 1.96, 2.42, 8.96, repro,
2018-08-24,1.53, -1.94, 11.39, 1.53, 1.78, 7.05, repro,
2018-08-25,1.63, -1.84, 4.17, 1.57, 1.85, 7.23, repro,
2018-08-26,0.58, -2.20, 8.10, 1.58, 1.80, 7.21, repro,
2018-08-27,1.25, -0.95, 10.24, 1.55, 1.80, 7.11, repro,
2018-08-28,1.21, -0.87, 3.30, 1.72, 2.17, 8.10, repro,
2018-08-29,0.57, 0.33, 1.51, 1.55, 1.79, 7.12, repro,
2018-08-30,-0.33, -1.29, 14.01, 1.57, 1.84, 7.30, repro,
2018-08-31,0.47, 1.42, 9.36, 1.55, 1.80, 7.15, repro,
2018-09-01,2.61, 0.55, 4.83, 1.56, 1.82, 7.16, repro,
2018-09-02,0.79, -1.16, 0.08, 1.81, 2.26, 8.54, repro,
2018-09-03,1.34, -1.08, 6.24, 1.70, 1.96, 7.76, repro,
2018-09-04,0.11, -1.74, 7.80, 1.57, 1.85, 7.22, repro,
2018-09-05,1.77, 0.65, 15.92, 1.75, 2.04, 7.97, repro,
2018-09-06,2.17, -1.38, 15.80, 1.66, 1.99, 7.62, repro,
2018-09-07,0.29, 0.49, 9.47, 1.87, 2.29, 8.86, repro,
2018-09-08,3.44, 0.36, 14.85, 1.66, 1.98, 7.66, repro,
2018-09-09,2.58, 0.41, 10.01, 1.57, 1.84, 7.27, repro,
2018-09-10,2.92, 0.93, 3.15, 1.55, 1.80, 7.19, repro,
2018-09-11,2.47, 2.68, 5.73, 1.71, 2.07, 8.07, repro,
2018-09-12,0.98, 1.59, 10.45, 1.61, 1.83, 7.50, repro,
2018-09-13,1.28, -0.11, 7.14, 1.65, 1.93, 7.65, repro,
2018-09-14,2.45, 0.63, -0.24, 1.64, 1.91, 7.56, repro,
2018-09-15,-0.18, -0.68, 13.05, 1.89, 2.27, 8.95, repro,
2018-09-16,2.73, -0.24, 2.09, 1.58, 1.85, 7.36, repro,
2018-09-17,0.88, -0.54, 6.59, 1.65, 1.86, 7.81, repro,
2018-09-18,0.84, -0.11, 5.67, 1.55, 1.79, 7.19, repro,
2018-09-19,0.90, 0.10, 5.94, 1.59, 1.83, 7.41, repro,
2018-09-20,2.13, -1.13, 0.28, 1.61, 1.84, 7.47, repro,
2018-09-21,2.48, 1.21, 8.65, 1.66, 1.91, 7.78, repro,
2018-09-22,-1.37, 1.59, 9.38, 1.56, 1.81, 7.20, repro,
2018-09-23,0.18, -0.31, 10.21, 99.62, 70.09, 202.40, repro,
2018-09-24,0.06, 1.42, 8.08, 116.42, 89.30, 216.61, repro,
2018-09-25,0.49, 0.81, 2.13, 201.62, 82.22, 421.45, repro,
2018-09-26,3.18, -1.77, -0.78, 115.48, 88.69, 214.55, repro,
2018-09-27,2.70, -0.30, 7.10, 115.76, 88.86, 214.57, repro,
2018-09-28,2.04, -0.70, -3.04, 100.66, 69.31, 227.41, repro,
2018-09-29,3.45, -1.05, 16.50, 201.24, 82.57, 424.01, repro,
2018-09-30,2.00, 1.67, 8.16, 102.11, 90.28, 222.57, repro,
2018-10-01,1.16, 0.83, 3.09, 87.56, 95.21, 199.09, repro,
2018-10-02,-0.95, -1.22, 11.93, 87.74, 95.21, 200.03, repro,
2018-10-03,1.26, -2.99, 12.10, 70.46, 69.77, 198.74, repro,
2018-10-04,1.83, -1.93, 4.58, 73.68, 99.48, 239.78, repro,
2018-10-05,-0.40, 1.62, 2.38, 88.19, 69.30, 219.83, repro,
2018-10-06,0.00, 2.05, 10.76, 70.65, 77.76, 241.92, repro,
2018-10-07,-0.86, 1.62, 9.48, 79.55, 91.83, 268.10, repro,
2018-10-08,-0.70, 1.22, 3.43, 60.73, 95.56, 212.02, repro,
2018-10-09,0.06, 0.82, 6.14, 59.68, 87.61, 212.22, repro,
2018-10-10,-1.36, -2.24, 2.03, 93.47, 72.98, 233.15, repro,
2018-10-11,0.67, -1.80, -0.57, 91.75, 70.43, 236.17, repro,
2018-10-12,1.18, -3.21, 0.32, 94.57, 82.73, 206.12, repro,
2018-10-13,1.63, -0.07, 12.27, 90.86, 71.24, 228.70, repro,
2018-10-14,1.81, 1.01, 10.90, 107.44, 70.62, 231.42, repro,
2018-10-15,-0.06, -0.85, 11.26, 104.57, 82.11, 249.22, repro,
2018-10-16,-0.93, 1.24, 9.07, 102.10, 71.52, 223.54, repro,
2018-10-17,-0.65, 1.11, 0.70, 203.12, 266.73, 399.09, repro,
2018-10-18,-8.55, 8.51, -32.12, 269.22, 283.70, 712.45, repro,
2018-10-19,-15.46, 13.00, -51.76, 269.57, 284.04, 712.28, repro,
2018-10-20,-52.38, 32.64, -154.12, 377.84, 351.97, 852.10, repro,
2018-10-21,-5.14, 3.38, -4.68, 84.15, 89.45, 243.26, repro,
2018-10-22,-5.19, 3.23, -2.64, 85.37, 92.18, 246.47, repro,
2018-10-23,-1.04, 2.57, -0.50, 71.32, 88.09, 262.22, repro,
2018-10-24,1.26, -0.72, 0.72, 66.34, 81.87, 180.08, repro,
2018-10-25,2.00, -0.88, 16.35, 70.72, 77.68, 241.53, repro,
2018-10-26,2.09, -2.24, 17.29, 63.76, 94.02, 204.38, repro,
2018-10-27,2.84, 0.97, 19.80, 99.51, 89.33, 222.52, repro,
2018-10-28,18.96, 1.47, 31.86, 270.87, 268.04, 509.32, repro,
2018-10-29,16.72, -2.72, 52.51, 234.82, 227.31, 530.92, repro,
2018-10-30,14.17, 0.25, 35.91, 277.33, 283.11, 518.54, repro,
2018-10-31,7.90, 2.70, 30.15, 274.11, 268.61, 510.99, repro,
2018-11-01,-2.97, 2.64, 2.53, 269.83, 265.84, 505.54, repro,
2018-11-02,-14.73, 7.23, -30.52, 296.92, 304.09, 630.88, repro,
2018-11-03,-17.78, 5.58, -26.32, 288.59, 285.06, 583.52, repro,
2018-11-04,0.35, 2.23, 3.40, 1.57, 1.85, 7.25, repro,
2018-11-05,4.47, 2.05, 20.68, 1.82, 2.30, 8.70, repro,
2018-11-06,3.27, 3.92, 1.81, 1.59, 1.81, 7.46, repro,
2018-11-07,2.06, 1.67, 8.84, 1.55, 1.78, 7.10, repro,
2018-11-08,0.04, 3.27, 5.69, 1.55, 1.80, 7.17, repro,
2018-11-09,2.95, 1.94, 0.17, 1.72, 2.15, 7.76, repro,
2018-11-10,-0.51, 2.60, 3.19, 1.59, 1.83, 7.23, repro,
2018-11-11,1.10, 0.56, 8.04, 1.63, 1.93, 7.48, repro,
2018-11-12,-0.78, 1.81, 15.62, 1.98, 2.52, 9.15, repro,
2018-11-13,-2.52, 2.07, -3.81, 1.58, 1.80, 7.25, repro,
2018-11-14,0.03, 2.57, 5.79, 1.84, 2.28, 8.53, repro,
2018-11-15,0.15, 4.24, 7.47, 1.69, 2.01, 7.74, repro,
2018-11-16,1.18, 3.58, 2.44, 1.56, 1.80, 7.18, repro,
2018-11-17,-1.80, 2.26, 8.29, 1.59, 1.86, 7.35, repro,
2018-11-18,0.67, 1.20, 9.60, 1.61, 1.93, 7.57, repro,
2018-11-19,-2.22, 3.39, 11.00, 1.80, 2.01, 8.49, repro,
2018-11-20,2.85, 2.19, 12.77, 1.69, 2.08, 7.74, repro,
2018-11-21,0.90, 1.72, 2.33, 1.69, 2.08, 7.65, repro,
2018-11-22,-0.11, 1.41, 17.66, 1.75, 2.15, 8.21, repro,
2018-11-23,0.81, 3.20, 13.20, 1.57, 1.86, 7.31, repro,
2018-11-24,1.16, 1.83, 6.05, 1.62, 1.92, 7.53, repro,
2018-11-25,-1.42, 1.51, 11.84, 1.59, 1.87, 7.36, repro,
2018-11-26,1.27, 3.80, 18.26, 1.58, 1.87, 7.37, repro,
2018-11-27,-0.44, 4.42, 4.12, 1.64, 1.97, 7.62, repro,
2018-11-28,-0.27, 1.62, 4.23, 1.59, 1.86, 7.38, repro,
2018-11-29,-0.30, 2.51, 3.92, 1.66, 1.95, 7.80, repro,
2018-11-30,0.33, 1.90, 2.44, 1.72, 1.98, 8.26, repro,
2018-12-01,1.17, 2.31, 11.38, 1.59, 1.87, 7.37, repro,
2018-12-02,3.10, 2.87, 17.71, 1.58, 1.87, 7.36, repro,
2018-12-03,-0.39, 2.08, 17.06, 1.61, 1.87, 7.40, repro,
2018-12-04,-0.34, 2.36, 8.68, 1.58, 1.88, 7.33, repro,
2018-12-05,-1.62, -0.17, 14.82, 1.64, 1.98, 7.67, repro,
2018-12-06,0.33, -1.37, -4.32, 1.84, 2.17, 8.80, repro,
2018-12-07,0.85, 2.06, 7.53, 1.63, 1.98, 7.62, repro,
2018-12-08,-0.12, 3.35, -1.30, 1.61, 1.89, 7.64, repro,
2018-12-09,1.25, 2.42, 2.84, 1.59, 1.91, 7.39, repro,
2018-12-10,0.15, 5.29, 11.19, 1.58, 1.88, 7.30, repro,
2018-12-11,-0.04, 4.15, 13.97, 1.56, 1.85, 7.28, repro,
2018-12-12,0.64, 3.51, 12.18, 1.55, 1.81, 7.08, repro,
2018-12-13,0.83, 0.69, 6.07, 1.58, 1.88, 7.32, repro,
2018-12-14,0.63, 2.93, 9.27, 1.58, 1.86, 7.28, repro,
2018-12-15,0.42, 1.50, 7.06, 1.56, 1.80, 7.15, repro,
2018-12-16,-0.11, 3.63, -0.76, 1.66, 2.03, 7.72, repro,
2018-12-17,-2.21, 6.72, 0.19, 1.57, 1.87, 7.24, repro,
2018-12-18,0.34, 3.38, 10.62, 1.62, 1.96, 7.55, repro,
2018-12-19,0.70, 3.56, 11.42, 1.57, 1.83, 7.20, repro,
2018-12-20,1.52, 2.01, 5.92, 1.61, 1.93, 7.50, repro,
2018-12-21,1.01, 3.63, 17.14, 1.55, 1.79, 7.11, repro,
2018-12-22,-0.86, 0.71, 20.71, 1.61, 1.89, 7.46, repro,
2018-12-23,0.90, 0.30, 7.25, 1.71, 2.03, 7.83, repro,
2018-12-24,-2.23, 1.92, 13.00, 1.57, 1.80, 7.21, repro,
2018-12-25,-0.40, 2.55, 13.02, 1.58, 1.88, 7.31, repro,
2018-12-26,0.63, 2.82, 8.66, 1.58, 1.85, 7.23, repro,
2018-12-27,1.16, 3.13, 17.81, 1.59, 1.84, 7.27, repro,
2018-12-28,0.34, 1.18, 13.52, 1.57, 1.86, 7.25, repro,
2018-12-29,-1.37, 1.82, 10.33, 1.57, 1.87, 7.30, repro,
2018-12-30,-0.07, 3.14, 15.86, 1.58, 1.86, 7.29, repro,
2018-12-31,-0.28, 3.66, 13.64, 1.64, 1.96, 7.54, repro,
2019-01-01,-1.95, 2.88, 14.11, 1.58, 1.86, 7.28, repro,
2019-01-02,-2.55, 3.88, 7.31, 1.58, 1.86, 7.33, repro,
2019-01-03,-0.61, 2.75, 10.88, 1.55, 1.79, 7.13, repro,
2019-01-04,1.08, 2.48, 9.13, 1.56, 1.80, 7.19, repro,
2019-01-05,0.47, 2.27, 7.15, 1.61, 1.87, 7.40, repro,
2019-01-06,0.08, 0.09, 17.47, 1.55, 1.82, 7.14, repro,
2019-01-07,-1.10, 3.11, 8.96, 1.63, 1.96, 7.54, repro,
2019-01-08,-1.86, 1.03, 9.27, 1.55, 1.80, 7.12, repro,
2019-01-09,-1.12, 2.08, 7.68, 1.59, 1.87, 7.31, repro,
2019-01-10,0.25, 3.87, 17.00, 1.60, 1.82, 7.30, repro,
2019-01-11,-0.15, 4.36, 17.48, 1.59, 1.88, 7.26, repro,
2019-01-12,-0.98, 2.53, 12.26, 1.63, 1.93, 7.40, repro,
2019-01-13,-0.13, 0.93, 8.72, 1.55, 1.79, 7.11, repro,
2019-01-14,-1.10, 4.06, 11.37, 1.58, 1.81, 7.21, repro,
2019-01-15,-3.75, 4.26, 9.28, 1.57, 1.81, 7.20, repro,
2019-01-16,-1.85, 3.98, 9.77, 1.57, 1.80, 7.18, repro,
2019-01-17,0.29, 3.66, 4.90, 1.57, 1.82, 7.21, repro,
2019-01-18,-1.21, 1.58, 1.19, 1.59, 1.80, 7.31, repro,
2019-01-19,-1.04, 3.78, 6.73, 1.59, 1.80, 7.36, repro,
2019-01-20,-0.81, 2.85, 13.53, 1.62, 1.86, 7.47, repro,
2019-01-21,-0.93, 3.86, 9.86, 1.59, 1.86, 7.30, repro,
2019-01-22,-2.51, 3.95, 19.09, 1.60, 1.91, 7.43, repro,
2019-01-23,-1.94, 3.31, 12.09, 1.57, 1.85, 7.25, repro,
2019-01-24,-1.01, 5.22, 9.70, 1.58, 1.86, 7.29, repro,
2019-01-25,-1.71, 2.26, 7.19, 1.58, 1.86, 7.27, repro,
2019-01-26,-0.51, 2.39, 8.22, 1.58, 1.85, 7.24, repro,
2019-01-27,-0.17, 3.11, 13.59, 1.57, 1.82, 7.18, sup6f,
2019-01-28,-0.21, 5.27, 23.63, 1.58, 1.93, 7.46, sup6f,
2019-01-29,-0.36, 4.51, 14.18, 1.53, 1.77, 7.06, sup6f,
2019-01-30,0.23, 1.70, 8.92, 1.53, 1.78, 7.09, sup6f,
2019-01-31,-3.69, 1.93, 10.78, 1.60, 1.82, 7.52, sup6f,
2019-02-01,-0.38, 2.23, 16.90, 1.54, 1.79, 7.11, sup6f,
2019-02-02,-1.54, 2.67, 7.34, 1.53, 1.77, 7.08, sup6f,
2019-02-03,-0.34, 1.79, 13.89, 1.54, 1.77, 7.11, sup6f,
2019-02-04,-0.12, 2.96, 16.28, 1.53, 1.77, 7.05, sup6f,
2019-02-05,-2.81, 4.45, 4.92, 1.53, 1.78, 7.12, sup6f,
2019-02-06,-0.47, 1.58, 8.32, 1.53, 1.80, 7.17, sup6f,
2019-02-07,-1.18, 2.87, 20.02, 1.60, 1.94, 7.42, sup6f,
2019-02-08,-2.84, 5.60, 8.85, 1.56, 1.87, 7.35, sup6f,
2019-02-09,-5.70, 1.04, 2.94, 1.54, 1.79, 7.14, sup6f,
2019-02-10,-2.49, 2.33, 4.35, 1.59, 1.90, 7.54, suppf,
2019-02-11,-2.07, 2.22, 20.44, 1.59, 1.86, 7.44, suppf,
2019-02-12,-0.15, 1.81, 22.95, 1.62, 1.86, 7.60, suppf,
2019-02-13,-1.95, 3.15, 13.34, 1.56, 1.84, 7.33, suppf,
2019-02-14,-1.53, 0.48, 4.77, 1.57, 1.81, 7.38, suppf,
2019-02-15,-1.16, 1.70, 7.55, 1.56, 1.81, 7.37, suppf,
2019-02-16,-0.84, 2.52, 13.11, 1.61, 1.98, 7.59, suppf,
2019-02-17,-0.85, 2.70, 18.42, 1.58, 1.90, 7.42, repro,
2019-02-18,0.89, 1.93, 5.01, 1.56, 1.82, 7.21, repro,
2019-02-19,-1.09, 3.69, 3.27, 1.55, 1.80, 7.12, repro,
2019-02-20,-0.78, 3.71, 6.70, 1.54, 1.79, 7.09, repro,
2019-02-21,-2.24, 4.54, 2.81, 1.55, 1.80, 7.13, repro,
2019-02-22,-0.17, 3.12, 12.77, 1.64, 1.99, 7.66, repro,
2019-02-23,-0.33, 2.90, 14.16, 1.56, 1.80, 7.15, repro,
2019-02-24,-1.11, 0.46, 19.09, 1.53, 1.77, 7.03, suppf,
2019-02-25,-0.85, 3.38, 10.25, 1.54, 1.80, 7.14, suppf,
2019-02-26,-0.41, 2.66, 8.07, 1.54, 1.81, 7.18, suppf,
2019-02-27,-0.74, 3.41, 9.26, 1.55, 1.80, 7.19, suppf,
